カタログに戻る

THOR ABLESTAR DEB

運用中LEO
NORAD 335·DEBRIS·🇺🇸 United States

打ち上げ Jun 29, 1961 から Cape Canaveral Space Force Station

Loading…

次のパス (今後24時間)

TLE

最新Source: Space-Track

元期: Sep 9, 2026, 09:31 UTC

1 00335U 61015DM  26252.39717389  .00000437  00000-0  22919-3 0  9998
2 00335  66.8379 273.0796 0030847 113.3986 247.0359 14.23083094339299

AllMySatでTHOR ABLESTAR DEBをリアルタイム追跡

Download on the App Store